Regional Weather Roundup
Issued by NWS

Home | Current Version | Previous Version | Graphics & Text | Print | Product List | Glossary On
Versions: 1 2 3 4 5 6 7 8 9 10 11 12 13 14 15 16 17 18 19 20 21 22 23 24 25 26 27
000
ASUS45 KBOU 151110
RWRCO

WEATHER ROUNDUP FOR COLORADO
NATIONAL WEATHER SERVICE DENVER/BOULDER CO
400 AM MST MON JAN 15 2018

NOTE: "FAIR" INDICATES FEW OR NO CLOUDS BELOW 12000 FEET WITH NO
SIGNIFICANT WEATHER AND/OR OBSTRUCTIONS TO VISIBILITY.

COZ001>005-013-030-031-151200-
...NORTHWEST COLORADO...

CITY           SKY/WX    TMP DP  RH WIND       PRES   REMARKS
CRAIG          FAIR      14   8  77 CALM      30.28F
HAYDEN         FAIR      16  12  84 E10       30.27F WCI   4
MEEKER         FAIR      23  17  78 SE8       30.27S WCI  14
RABBIT EARS PA CLOUDY    19  18  93 W8G22     30.22F WCI   9
STEAMBOAT SPGS FAIR       8   5  86 CALM      30.27F
WALDEN         CLOUDY    21  14  73 SE8       30.23F WCI  12
$$

COZ006>008-011-151200-
...WEST CENTRAL VALLEYS...

CITY           SKY/WX    TMP DP  RH WIND       PRES   REMARKS
GRAND JUNCTION FAIR      26  23  88 S3        30.27F
MONTROSE       FAIR      20  15  81 S6        30.29F WCI  12
EAGLE          FAIR      16  11  80 SW3       30.30F
RIFLE          FAIR      22  19  89 CALM      30.30F
DELTA          FAIR      24  18  78 SW3       30.29F
NUCLA          FAIR      23  16  74 E7        30.31S WCI  15
$$

COZ017>023-064>068-151200-
...SOUTHWEST COLORADO...

CITY           SKY/WX    TMP DP  RH WIND       PRES   REMARKS
DURANGO        FAIR      19  16  88 N3        30.25F
CORTEZ         FAIR      17  15  92 CALM      30.27F
PAGOSA SPRINGS FAIR      21  18  89 CALM      30.26F
TELLURIDE      FAIR      27   1  32 SE6       30.29F WCI  21
WOLF CREEK PAS NOT AVBL
$$

COZ009-010-012-014-032>034-037-058>063-151200-
...CENTRAL COLORADO...

CITY           SKY/WX    TMP DP  RH WIND       PRES   REMARKS
ASPEN          FAIR      17   9  70 S7        30.25F WCI   8
BUENA VISTA    FAIR      18   0  45 CALM      30.19F
COPPER MTN     NOT AVBL
BERTHOUD PASS  FAIR      12   0  57 NW36G44   30.17F WCI -11
COTTONWOOD PAS NOT AVBL
GUNNISON       FAIR       7   2  80 CALM      30.31F
KREMMLING      NOT AVBL
LEADVILLE      FAIR      17   0  47 NE8G24    30.21F WCI   7
MONARCH PASS   FAIR      18   5  57 W30       30.34S WCI  -2
SALIDA         FAIR      25   0  33 NW5       30.27F WCI  19
SUNLIGHT       FAIR      21   5  49 SW7       30.31F WCI  13
WILKERSON PASS FAIR      23  -8  25 SW8       30.23F WCI  14
$$

COZ069>075-151200-
...SAN LUIS VALLEY/SANGRE DE CRISTO MOUNTAINS...

CITY           SKY/WX    TMP DP  RH WIND       PRES   REMARKS
ALAMOSA        FAIR       3  -1  83 CALM      30.23F
DEL NORTE      FAIR      20  -3  35 W14       30.24S WCI   7
LA VETA PASS   FAIR      25   5  42 SW6         N/A  WCI  18
SAGUACHE       FAIR      21   5  49 NW8       30.24F WCI  12
$$

COZ035-036-038>040-151200-
...NORTHERN COLORADO FRONT RANGE...

CITY           SKY/WX    TMP DP  RH WIND       PRES   REMARKS
DENVER INTL AP FLURRIES  25  21  85 E13       30.30S WCI  14
DMNS CITY PARK NOT AVBL
AURORA         CLOUDY    27  25  93 NE13      30.29R WCI  16
FRONT RANGE AP CLOUDY    28  25  88 NE13      30.31R WCI  17
ERIE MUNI ARPT CLOUDY    31  26  82 E3        30.35S
BOULDER MUN AP CLOUDY    32  27  80 E3        30.28S
CENTENNIAL     CLOUDY    29  24  82 NE5       30.27S WCI  24
BROOMFIELD     CLOUDY    32  27  80 E5        30.28S WCI  27
FORT COLLINS   FLURRIES  27  22  81 E8        30.33R WCI  19
LONGMONT       CLOUDY    31  25  78 E12       30.33R WCI  21
$$

COZ041-046-047-076>085-087-088-151200-
...PIKES PEAK/PALMER DIVIDE AND SOUTHERN FOOTHILLS...

CITY           SKY/WX    TMP DP  RH WIND       PRES   REMARKS
COLO. SPRINGS  MOCLDY    29  23  78 NE9       30.26R WCI  20
A. F. ACADEMY  CLOUDY    27  22  80 N14       30.23R WCI  16
SCHRIEVER AFB  CLOUDY    27  23  85 NE10      30.25R WCI  17
CHEYENNE MTN   FAIR      26  21  81 N8        30.18R WCI  17
ELLICOTT         N/A    N/A N/A N/A NE15      30.23R
FALCON         CLOUDY    26  24  93 N14       30.24R WCI  14
FORT CARSON    FAIR      25  21  82 NE7       30.24R WCI  18
LIMON          CLOUDY    26  24  92 N14       30.28R WCI  14
MONUMENT HILL  CLOUDY    23  23 100 N6        30.25S FOG     WCI  16
CANON CITY     MOCLDY    28  23  80 CALM      30.27R
WALSENBURG     PTSUNNY   27  23  86 CALM      30.29R
TRINIDAD       FAIR      27  20  75 NW10      30.27R WCI  17
$$

COZ042>045-048>051-090-091-151200-
...NORTHEAST COLORADO...

CITY           SKY/WX    TMP DP  RH WIND       PRES   REMARKS
GREELEY ARPT   LGT SNOW  25  23  92 E7        30.34R FOG     WCI  17
AKRON          FLURRIES  23  22  96 NE8       30.32R WCI  14
BURLINGTON     CLOUDY    24  22  91 N13       30.30R WCI  12
WRAY           CLOUDY    21  10  63 N15       30.38R WCI   8
YUMA           LGT SNOW  19  18  93 N10       30.35R WCI   8
STERLING       LGT SNOW  23  19  86 E5        30.35S WCI  17
HOLYOKE        MOCLDY    21   9  58 N21G26    30.38R WCI   6
FORT MORGAN    LGT SNOW  23  18  80 N14G20    30.36R WCI  11
$$

COZ086-089-092>099-151200-
...SOUTHEAST COLORADO...

CITY           SKY/WX    TMP DP  RH WIND       PRES   REMARKS
PUEBLO         MOCLDY    24  20  84 CALM      30.29R
LA JUNTA       MOCLDY    26  20  77 N7        30.30R WCI  18
LAMAR          CLOUDY    32  26  78 NE14      30.27R WCI  22
SPRINGFIELD      N/A     27  26  96 NE23G30   30.21R WCI  12
$$




USA.gov is the U.S. government's official web portal to all federal, state and local government web resources and services.